Regional Weather Roundup
Issued by NWS

Home | Current Version | Previous Version | Text Only | Print | Product List | Glossary Off
Versions: 1 2 3 4 5 6 7 8 9 10 11 12 13 14 15 16 17 18 19 20 21 22 23 24 25 26 27 28 29 30 31 32 33 34 35 36 37 38 39 40 41 42 43 44 45 46 47 48 49 50

000
ASUS43 KDTX 230410
RWRMI
MICHIGAN HOURLY REGIONAL WEATHER ROUNDUP
NATIONAL WEATHER SERVICE DETROIT/PONTIAC MI
1100 PM EST SAT NOV 22 2014

NOTE: "FAIR" INDICATES FEW OR NO CLOUDS BELOW 12,000 FEET WITH NO
SIGNIFICANT WEATHER AND/OR OBSTRUCTION TO VISIBILITY.

MIZ047>049-052>055-059>063-066>070-074>076-081>083-230500-
SOUTHEAST LOWER MICHIGAN

CITY           SKY/WX    TMP DP  RH WIND       PRES   REMARKS
ADRIAN         CLOUDY    45  41  86 SW8       29.97R
ALMA           CLOUDY    42  42  99 SW6       29.88R FOG
ANN ARBOR      CLOUDY    47  42  83 SW7       29.95S
BAD AXE        CLOUDY    45  45 100 SW8       29.88R FOG
DETROIT CITY   CLOUDY    50  42  74 SW8       29.95S
DETROIT        CLOUDY    48  42  80 S13       29.96S
FLINT          CLOUDY    47  44  90 S7        29.91R FOG
GROSSE ILE     CLOUDY    46  43  87 S9        29.95S
HILLSDALE      CLOUDY    50  45  83 SW8       29.94S
HOWELL         CLOUDY    48  46  91 SW8       29.91S

CITY           SKY/WX    TMP DP  RH WIND       PRES   REMARKS
JACKSON        CLOUDY    50  44  80 SW12G22   29.93R
LAMBERTVILLE   CLOUDY    52  41  66 SW6       29.98R
LANSING        CLOUDY    49  44  83 SW13      29.91R
LAPEER         NOT AVBL
MASON          CLOUDY    50  45  83 SW8G20    29.91S
MONROE         CLOUDY    50  43  76 SW9       29.95S
MT. CLEMENS    CLOUDY    48  45  87 SW9       29.92S
PONTIAC        CLOUDY    47  42  83 SW9       29.91F
PORT HOPE        N/A     45  42  89 SW6       29.86S
PORT HURON     CLOUDY    43  43 100 S7        29.93S
TRI CITIES     CLOUDY    47  44  90 SW14      29.88R
YPSILANTI      CLOUDY    48  41  76 SW9       29.95F
$$
MIZ043>046-050>051-056>058-064>065-071>073-077>080-230500-
SOUTHWEST LOWER MICHIGAN

CITY           SKY/WX    TMP DP  RH WIND       PRES   REMARKS
BATTLE CREEK   CLOUDY    50  44  80 SW15      29.91S
BENTON HARBOR  CLOUDY    50  45  83 S8        29.89S
BIG RAPIDS     FOG       42  42 100 SW3       29.84S VSB 3/4
COLDWATER      CLOUDY    51  45  80 SW8       29.93S
HOLLAND        CLOUDY    52  46  80 SW21G29   29.87S
GRAND RAPIDS   MOCLDY    44  42  93 SW10      29.88R FOG
KALAMAZOO      CLOUDY    48  43  82 SW13      29.91S
MARSHALL       CLOUDY    48  43  81 SW12G17   29.92R
MUSKEGON       CLOUDY    48  44  86 S14       29.85S
$$
MIZ016>042-230500-
NORTHERN LOWER MICHIGAN

CITY           SKY/WX    TMP DP  RH WIND       PRES   REMARKS
ALPENA         CLOUDY    37  37 100 S3        29.82R FOG
BEAVER ISLAND  CLOUDY    40  39  93 SW9       29.79R FOG
BELLAIRE       CLOUDY    40  39  96 CALM      29.82R FOG
CADILLAC       CLOUDY    39  39 100 SW10      29.81S FOG
CHARLEVOIX     CLOUDY    40  40 100 SW5       29.83R FOG
FRANKFORT      CLOUDY    44  42  95 SW6       29.81S FOG
GAYLORD        FOG       37  37 100 SW10      29.79R VSB 1/4
GRAYLING       CLOUDY    38  38 100 SW5       29.82R FOG
HARBOR SPRINGS CLOUDY    38  38 100 S6        29.80R FOG
HOUGHTON LAKE  CLOUDY    39  38  96 S7        29.83R FOG
MANISTEE       MOCLDY    45  41  87 S3        29.83S
OSCODA         FOG       39  39 100 CALM      29.85R VSB 1/2
PELLSTON       CLOUDY    39  39 100 S3        29.80S FOG
TRAVERSE CITY  MOCLDY    41  39  93 SW5       29.81R FOG
$$
MIZ007>008-015-230500-
EASTERN UPPER MICHIGAN

CITY           SKY/WX    TMP DP  RH WIND       PRES   REMARKS
KINROSS        CLOUDY    36  36 100 SW5       29.78S
MACKINAC ISLAN CLOUDY    38  38  98 W8        29.78R FOG
NEWBERRY       CLOUDY    33  32  97 SW9       29.77R FOG
S. S. MARIE    CLOUDY    34  31  88 CALM      29.78R
$$
MIZ004>006-011>014-085-230500-
CENTRAL UPPER MICHIGAN

CITY           SKY/WX    TMP DP  RH WIND       PRES   REMARKS
MANISTIQUE     CLOUDY    37  34  92 SW3       29.76S
ESCANABA       CLOUDY    36  34  93 SW9       29.76S
MENOMINEE      CLOUDY    37  36  93 CALM      29.76F
SAWYER-GWINN   CLOUDY    33  31  91 S9        29.71S
$$
MIZ001>003-009>011-084-230500-
WESTERN UPPER MICHIGAN

CITY           SKY/WX    TMP DP  RH WIND       PRES   REMARKS
IRON MOUNTAIN  CLOUDY    35  33  92 S6        29.71S
HOUGHTON       CLOUDY    34  30  85 SE8       29.66S
COPPER HARBOR    N/A     35  31  85 S3        29.68F
IRONWOOD       CLOUDY    34  32  93 SE6       29.60F
$$

ABBREVIATIONS USED IN REMARKS
   TC - TEMPERATURE IN CELSIUS
  WCI - WIND CHILL INDEX
   HX - HEAT INDEX
  VSB - VISIBILITY



USA.gov is the U.S. government's official web portal to all federal, state and local government web resources and services.